Flag for India Weather past 2 weeks in Kolkata, West Bengal, India

Now
97 °F

Scattered clouds.


Feels Like: 122 °F
Forecast: 82 / 98 °F
Wind: 12 mph from Southeast

Location: Calcutta / Dum Dum

Current Time: May 24, 2015 at 3:44:18 PM

Latest Report: May 24, 2015 at 3:20 PM


Visibility: 2 mi

Pressure: 29.50 "Hg

Humidity: 63%

Dew point: 82 °F

Location of KolkataLocation

Historic Weather in Kolkata — Graph

°F

Kolkata temperature yesterday

Maximum temperature yesterday: 99 °F (at 10:50 AM)
Minimum temperature yesterday: 86 °F (at 5:50 AM)
Average temperature yesterday: 92 °F

Past Weeks' High & Low Weather Summary

 TemperatureHumidityPressure
High100 °F (May 14, 12:50 PM)94% (May 11, 4:50 AM)29.80 "Hg (May 11, 4:50 AM)
Low77 °F (May 16, 10:50 PM)40% (May 14, 12:50 PM)29.45 "Hg (May 22, 3:50 PM)
Average89 °F74%29.63 "Hg
* Reported May 9 1:50 PM — May 24 2:20 PM, Kolkata, Weather by CustomWeather, © 2015

Note: Actual official high and low records may vary slightly from our data, if they occured in-between our weather recording intervals... More about our weather records

Advertising

Kolkata weather history for previous 24 hours

 ConditionsComfort  
Time TempWeatherWind HumidityBarometerVisibility
2:20 PM
Sun, May 24
99 °FScattered clouds.12 mph60%29.50 "Hg2 mi
1:50 PM99 °FScattered clouds.14 mph60%29.50 "Hg2 mi
1:20 PM99 °FScattered clouds.12 mph60%29.53 "Hg2 mi
12:50 PM97 °FScattered clouds.13 mph63%29.53 "Hg2 mi
12:20 PM97 °FScattered clouds.12 mph67%29.53 "Hg2 mi
11:50 AM97 °FScattered clouds.12 mph67%29.56 "Hg2 mi
11:20 AM97 °FScattered clouds.10 mph67%29.56 "Hg2 mi
10:50 AM95 °FScattered clouds.10 mph67%29.56 "Hg2 mi
10:20 AM95 °FScattered clouds.13 mph67%29.56 "Hg2 mi
9:50 AM93 °FScattered clouds.14 mph71%29.56 "Hg2 mi
9:20 AM93 °FScattered clouds.14 mph71%29.56 "Hg2 mi
8:50 AM93 °FScattered clouds.13 mph71%29.56 "Hg2 mi
8:20 AM91 °FScattered clouds.12 mph75%29.56 "Hg2 mi
7:50 AM91 °FScattered clouds.7 mph75%29.56 "Hg2 mi
7:20 AM90 °FScattered clouds.5 mph79%29.56 "Hg2 mi
6:50 AM90 °FScattered clouds.7 mph79%29.53 "Hg2 mi
6:20 AM88 °FScattered clouds.12 mph84%29.53 "Hg2 mi
5:50 AM88 °FScattered clouds.9 mph84%29.53 "Hg2 mi
5:20 AM88 °FPassing clouds.12 mph89%29.50 "Hg2 mi
4:50 AM88 °FPassing clouds.9 mph89%29.50 "Hg2 mi
4:20 AM88 °FPassing clouds.9 mph89%29.50 "Hg2 mi
3:50 AM88 °FPassing clouds.9 mph89%29.50 "Hg2 mi
3:20 AM88 °FPassing clouds.8 mph89%29.50 "Hg2 mi
2:50 AM88 °FPassing clouds.9 mph89%29.50 "Hg2 mi
2:20 AM88 °FPassing clouds.9 mph89%29.50 "Hg2 mi
1:50 AM88 °FPassing clouds.10 mph89%29.50 "Hg2 mi
1:20 AM88 °FPassing clouds.8 mph89%29.50 "Hg2 mi
12:50 AM88 °FPassing clouds.9 mph89%29.50 "Hg2 mi
12:20 AM88 °FPassing clouds.12 mph89%29.50 "Hg2 mi
11:50 PM
Sat, May 23
88 °FPassing clouds.13 mph84%29.50 "Hg2 mi
11:20 PM88 °FPassing clouds.13 mph84%29.53 "Hg2 mi
10:50 PM88 °FPassing clouds.8 mph84%29.53 "Hg2 mi
10:20 PM88 °FPassing clouds.12 mph84%29.50 "Hg2 mi
9:50 PM88 °FPassing clouds.12 mph84%29.50 "Hg2 mi
9:20 PM90 °FPassing clouds.14 mph79%29.50 "Hg2 mi
8:50 PM90 °FPassing clouds.14 mph79%29.50 "Hg2 mi
8:20 PM90 °FPassing clouds.8 mph79%29.50 "Hg2 mi
7:50 PM90 °FPassing clouds.9 mph79%29.50 "Hg2 mi
7:20 PM91 °FPassing clouds.10 mph75%29.47 "Hg2 mi
6:50 PM91 °FPassing clouds.10 mph75%29.47 "Hg2 mi
6:20 PM91 °FScattered clouds.13 mph75%29.45 "Hg2 mi
5:50 PM93 °FScattered clouds.10 mph71%29.45 "Hg2 mi
5:20 PM95 °FScattered clouds.13 mph67%29.45 "Hg2 mi
4:50 PM95 °FScattered clouds.13 mph67%29.45 "Hg2 mi
4:20 PM97 °FHaze.10 mph63%29.45 "Hg2 mi
3:50 PM97 °FHaze.12 mph63%29.45 "Hg2 mi
3:20 PM99 °FHaze.15 mph60%29.47 "Hg2 mi
Weather by CustomWeather, © 2015

See weather overviewHow to use our weather pages